| time (UTC) | temp F | wind direction | speed knots | gust knots | rain 1hr in | rain 24hr in | rain mn in | humidity % | barometer mb |
| 20260505231442 | 78 | 172 | 14.8 | 15.6 | 0.00 | 0.00 | 0.00 | ||
| 20260505230938 | 79 | 153 | 5.2 | 16.5 | 0.00 | 0.00 | 0.00 | ||
| 20260505230430 | 78 | 174 | 11.3 | 21.7 | 0.00 | 0.00 | 0.00 | ||
| 20260505225926 | 79 | 173 | 9.6 | 18.2 | 0.00 | 0.00 | 0.00 | ||
| 20260505225421 | 80 | 127 | 8.7 | 13.0 | 0.00 | 0.00 | 0.00 | ||
| 20260505224916 | 82 | 127 | 7.8 | 13.9 | 0.00 | 0.00 | 0.00 | ||
| 20260505224412 | 80 | 159 | 7.0 | 13.9 | 0.00 | 0.00 | 0.00 | ||
| 20260505223907 | 80 | 153 | 8.7 | 13.9 | 0.00 | 0.00 | 0.00 | ||
| 20260505223400 | 80 | 198 | 11.3 | 16.5 | 0.00 | 0.00 | 0.00 | ||
| 20260505222855 | 79 | 115 | 11.3 | 17.4 | 0.00 | 0.00 | 0.00 | ||
| 20260505222350 | 80 | 165 | 12.2 | 13.0 | 0.00 | 0.00 | 0.00 | ||
| 20260505221846 | 80 | 160 | 7.8 | 13.0 | 0.00 | 0.00 | 0.00 | ||
| 20260505221341 | 80 | 233 | 7.8 | 14.8 | 0.00 | 0.00 | 0.00 | ||
| 20260505220837 | 80 | 221 | 4.3 | 18.2 | 0.00 | 0.00 | 0.00 | ||
| 20260505220329 | 80 | 167 | 13.0 | 14.8 | 0.00 | 0.00 | 0.00 | ||
| 20260505215824 | 81 | 167 | 6.1 | 16.5 | 0.00 | 0.00 | 0.00 | ||
| 20260505215320 | 83 | 167 | 5.2 | 13.9 | 0.00 | 0.00 | 0.00 | ||
| 20260505214815 | 82 | 208 | 6.1 | 13.0 | 0.00 | 0.00 | 0.00 | ||
| 20260505214310 | 80 | 211 | 7.0 | 14.8 | 0.00 | 0.00 | 0.00 | ||
| 20260505213806 | 80 | 136 | 11.3 | 13.9 | 0.00 | 0.00 | 0.00 | ||
| 20260505213258 | 81 | 186 | 7.0 | 15.6 | 0.00 | 0.00 | 0.00 | ||
| 20260505212754 | 80 | 173 | 10.4 | 19.1 | 0.00 | 0.00 | 0.00 | ||
| 20260505212249 | 80 | 150 | 11.3 | 24.3 | 0.00 | 0.00 | 0.00 | ||
| 20260505211744 | 80 | 214 | 7.8 | 20.9 | 0.00 | 0.00 | 0.00 | ||
| 20260505211240 | 80 | 165 | 13.0 | 20.9 | 0.00 | 0.00 | 0.00 | ||
| 20260505210735 | 82 | 156 | 9.6 | 20.9 | 0.00 | 0.00 | 0.00 | ||
| 20260505210227 | 84 | 184 | 10.4 | 22.6 | 0.00 | 0.00 | 0.00 | ||
| 20260505205723 | 82 | 235 | 6.1 | 18.2 | 0.00 | 0.00 | 0.00 | ||
| 20260505205218 | 83 | 177 | 13.0 | 15.6 | 0.00 | 0.00 | 0.00 | ||
| 20260505204713 | 84 | 146 | 11.3 | 19.1 | 0.00 | 0.00 | 0.00 | ||
| 20260505204208 | 84 | 218 | 13.9 | 23.5 | 0.00 | 0.00 | 0.00 | ||
| 20260505203703 | 84 | 174 | 8.7 | 17.4 | 0.00 | 0.00 | 0.00 | ||
| 20260505203156 | 83 | 186 | 10.4 | 18.2 | 0.00 | 0.00 | 0.00 | ||
| 20260505202651 | 83 | 181 | 7.8 | 20.9 | 0.00 | 0.00 | 0.00 | ||
| 20260505202146 | 85 | 194 | 11.3 | 21.7 | 0.00 | 0.00 | 0.00 | ||
| 20260505201642 | 84 | 190 | 13.0 | 23.5 | 0.00 | 0.00 | 0.00 | ||
| 20260505201136 | 82 | 197 | 13.0 | 18.2 | 0.00 | 0.00 | 0.00 | ||
| 20260505200631 | 83 | 169 | 7.8 | 21.7 | 0.00 | 0.00 | 0.00 | ||
| 20260505200124 | 85 | 218 | 9.6 | 20.9 | 0.00 | 0.00 | 0.00 | ||
| 20260505195114 | 84 | 162 | 19.1 | 20.9 | 0.00 | 0.00 | 0.00 | ||
| 20260505194610 | 85 | 146 | 19.1 | 16.5 | 0.00 | 0.00 | 0.00 | ||
| 20260505194104 | 85 | 120 | 13.0 | 16.5 | 0.00 | 0.00 | 0.00 | ||
| 20260505193600 | 85 | 124 | 7.0 | 24.3 | 0.00 | 0.00 | 0.00 | ||
| 20260505193052 | 83 | 131 | 11.3 | 16.5 | 0.00 | 0.00 | 0.00 | ||
| 20260505192547 | 85 | 165 | 12.2 | 21.7 | 0.00 | 0.00 | 0.00 | ||
| 20260505192041 | 83 | 129 | 7.0 | 20.0 | 0.00 | 0.00 | 0.00 | ||
| 20260505191536 | 85 | 174 | 12.2 | 18.2 | 0.00 | 0.00 | 0.00 | ||
| 20260505191032 | 84 | 191 | 11.3 | 16.5 | 0.00 | 0.00 | 0.00 | ||
| 20260505190526 | 84 | 131 | 10.4 | 16.5 | 0.00 | 0.00 | 0.00 | ||
| 20260505190018 | 84 | 210 | 9.6 | 17.4 | 0.00 | 0.00 | 0.00 | ||
| 20260505185514 | 83 | 176 | 12.2 | 20.0 | 0.00 | 0.00 | 0.00 | ||
| 20260505185009 | 83 | 167 | 8.7 | 17.4 | 0.00 | 0.00 | 0.00 | ||
| 20260505184503 | 82 | 163 | 9.6 | 23.5 | 0.00 | 0.00 | 0.00 | ||
| 20260505183959 | 84 | 163 | 7.8 | 19.1 | 0.00 | 0.00 | 0.00 | ||
| 20260505183454 | 83 | 174 | 12.2 | 19.1 | 0.00 | 0.00 | 0.00 | ||
| 20260505182946 | 84 | 124 | 8.7 | 17.4 | 0.00 | 0.00 | 0.00 | ||
| 20260505182442 | 83 | 159 | 7.0 | 13.9 | 0.00 | 0.00 | 0.00 | ||
| 20260505181937 | 83 | 208 | 11.3 | 13.0 | 0.00 | 0.00 | 0.00 | ||
| 20260505181432 | 82 | 198 | 7.0 | 17.4 | 0.00 | 0.00 | 0.00 | ||
| 20260505180927 | 83 | 183 | 15.6 | 13.9 | 0.00 | 0.00 | 0.00 | ||
| 20260505180422 | 82 | 163 | 7.8 | 15.6 | 0.00 | 0.00 | 0.00 | ||
| 20260505175915 | 82 | 190 | 7.8 | 13.9 | 0.00 | 0.00 | 0.00 | ||
| 20260505175410 | 83 | 231 | 10.4 | 17.4 | 0.00 | 0.00 | 0.00 | ||
| 20260505174906 | 83 | 190 | 11.3 | 17.4 | 0.00 | 0.00 | 0.00 | ||
| 20260505174401 | 83 | 239 | 7.0 | 13.9 | 0.00 | 0.00 | 0.00 | ||
| 20260505173856 | 82 | 167 | 8.7 | 16.5 | 0.00 | 0.00 | 0.00 | ||
| 20260505173352 | 82 | 195 | 7.8 | 17.4 | 0.00 | 0.00 | 0.00 | ||
| 20260505172844 | 82 | 148 | 10.4 | 14.8 | 0.00 | 0.00 | 0.00 | ||
| 20260505172340 | 83 | 191 | 6.1 | 16.5 | 0.00 | 0.00 | 0.00 | ||
| 20260505171835 | 82 | 146 | 6.1 | 15.6 | 0.00 | 0.00 | 0.00 | ||
| 20260505171331 | 83 | 219 | 4.3 | 18.2 | 0.00 | 0.00 | 0.00 | ||
| 20260505170826 | 81 | 208 | 7.0 | 12.2 | 0.00 | 0.00 | 0.00 | ||
| 20260505170321 | 82 | 193 | 8.7 | 18.2 | 0.00 | 0.00 | 0.00 | ||
| 20260505165814 | 82 | 183 | 9.6 | 14.8 | 0.00 | 0.00 | 0.00 | ||
| 20260505165309 | 81 | 197 | 5.2 | 17.4 | 0.00 | 0.00 | 0.00 | ||
| 20260505164804 | 81 | 197 | 14.8 | 14.8 | 0.00 | 0.00 | 0.00 | ||
| 20260505164259 | 81 | 239 | 10.4 | 13.0 | 0.00 | 0.00 | 0.00 | ||
| 20260505163755 | 82 | 190 | 8.7 | 16.5 | 0.00 | 0.00 | 0.00 | ||
| 20260505163250 | 83 | 228 | 7.0 | 14.8 | 0.00 | 0.00 | 0.00 | ||
| 20260505162743 | 81 | 219 | 7.8 | 16.5 | 0.00 | 0.00 | 0.00 | ||
| 20260505162237 | 81 | 212 | 14.8 | 11.3 | 0.00 | 0.00 | 0.00 | ||
| 20260505161731 | 82 | 193 | 6.1 | 13.9 | 0.00 | 0.00 | 0.00 | ||
| 20260505160721 | 81 | 236 | 6.1 | 14.8 | 0.00 | 0.00 | 0.00 | ||
| 20260505160216 | 80 | 253 | 7.8 | 15.6 | 0.00 | 0.00 | 0.00 | ||
| 20260505153146 | 80 | 163 | 12.2 | 16.5 | 0.00 | 0.00 | 0.00 | ||
| 20260505152637 | 80 | 212 | 10.4 | 13.9 | 0.00 | 0.00 | 0.00 | ||
| 20260505152133 | 80 | 269 | 12.2 | 15.6 | 0.00 | 0.00 | 0.00 | ||
| 20260505151628 | 79 | 181 | 9.6 | 15.6 | 0.00 | 0.00 | 0.00 | ||
| 20260505151124 | 79 | 217 | 7.0 | 13.9 | 0.00 | 0.00 | 0.00 | ||
| 20260505150619 | 79 | 194 | 12.2 | 14.8 | 0.00 | 0.00 | 0.00 | ||
| 20260505150114 | 79 | 186 | 13.0 | 16.5 | 0.00 | 0.00 | 0.00 | ||
| 20260505140518 | 75 | 215 | 7.0 | 10.4 | 0.00 | 0.00 | 0.00 | ||
| 20260505124858 | 62 | 136 | 3.5 | 7.0 | 0.00 | 0.00 | 0.00 | ||
| 20260505124353 | 62 | 121 | 4.3 | 7.0 | 0.00 | 0.00 | 0.00 | ||
| 20260505123847 | 61 | 191 | 5.2 | 6.1 | 0.00 | 0.00 | 0.00 | ||
| 20260505123343 | 61 | 165 | 2.6 | 6.1 | 0.00 | 0.00 | 0.00 | ||
| 20260505122838 | 61 | 134 | 4.3 | 7.8 | 0.00 | 0.00 | 0.00 | ||
| 20260505122331 | 61 | 138 | 3.5 | 5.2 | 0.00 | 0.00 | 0.00 | ||
| 20260505121826 | 60 | 207 | 2.6 | 7.8 | 0.00 | 0.00 | 0.00 | ||
| 20260505121321 | 60 | 139 | 3.5 | 6.1 | 0.00 | 0.00 | 0.00 | ||
| 20260505120817 | 60 | 201 | 2.6 | 5.2 | 0.00 | 0.00 | 0.00 | ||
| 20260505120312 | 59 | 160 | 2.6 | 6.1 | 0.00 | 0.00 | 0.00 | ||
| 20260505115807 | 58 | 195 | 2.6 | 6.1 | 0.00 | 0.00 | 0.00 | ||
| 20260505115300 | 59 | 156 | 2.6 | 5.2 | 0.00 | 0.00 | 0.00 | ||
| 20260505114250 | 58 | 176 | 1.7 | 4.3 | 0.00 | 0.00 | 0.00 | ||
| 20260505113746 | 56 | 173 | 2.6 | 5.2 | 0.00 | 0.00 | 0.00 | ||
| 20260505113240 | 56 | 201 | 3.5 | 6.1 | 0.00 | 0.00 | 0.00 | ||
| 20260505112735 | 56 | 128 | 0.9 | 3.5 | 0.00 | 0.00 | 0.00 | ||
| 20260505112227 | 56 | 163 | 0.0 | 2.6 | 0.00 | 0.00 | 0.00 | ||
| 20260505111723 | 54 | 135 | 0.0 | 0.0 | 0.00 | 0.00 | 0.00 | ||
| 20260505111218 | 52 | 135 | 0.0 | 0.0 | 0.00 | 0.00 | 0.00 | ||
| 20260505110713 | 54 | 135 | 0.0 | 0.0 | 0.00 | 0.00 | 0.00 | ||
| 20260505110209 | 53 | 135 | 0.0 | 0.0 | 0.00 | 0.00 | 0.00 | ||
| 20260505102124 | 53 | 135 | 0.0 | 0.0 | 0.00 | 0.00 | 0.00 | ||
| 20260505101619 | 51 | 135 | 0.0 | 0.0 | 0.00 | 0.00 | 0.00 | ||
| 20260505101114 | 52 | 135 | 0.0 | 0.0 | 0.00 | 0.00 | 0.00 | ||
| 20260505100609 | 51 | 135 | 0.0 | 0.0 | 0.00 | 0.00 | 0.00 | ||
| 20260505100105 | 52 | 135 | 0.0 | 0.0 | 0.00 | 0.00 | 0.00 | ||
| 20260505095600 | 52 | 135 | 0.0 | 0.0 | 0.00 | 0.00 | 0.00 | ||
| 20260505095052 | 52 | 135 | 0.0 | 0.0 | 0.00 | 0.00 | 0.00 | ||
| 20260505094546 | 52 | 135 | 0.0 | 0.0 | 0.00 | 0.00 | 0.00 | ||
| 20260505094041 | 53 | 135 | 0.0 | 0.0 | 0.00 | 0.00 | 0.00 | ||
| 20260505093536 | 52 | 135 | 0.0 | 0.0 | 0.00 | 0.00 | 0.00 | ||
| 20260505093032 | 52 | 135 | 0.0 | 0.0 | 0.00 | 0.00 | 0.00 | ||
| 20260505092527 | 52 | 135 | 0.0 | 0.0 | 0.00 | 0.00 | 0.00 | ||
| 20260505092019 | 51 | 135 | 0.0 | 0.0 | 0.00 | 0.00 | 0.00 | ||
| 20260505091514 | 52 | 135 | 0.0 | 0.0 | 0.00 | 0.00 | 0.00 | ||
| 20260505091009 | 52 | 135 | 0.0 | 0.0 | 0.00 | 0.00 | 0.00 | ||
| 20260505090504 | 53 | 135 | 0.0 | 1.7 | 0.00 | 0.00 | 0.00 | ||
| 20260505085454 | 53 | 139 | 0.0 | 0.0 | 0.00 | 0.00 | 0.00 | ||
| 20260505084947 | 53 | 139 | 0.0 | 0.0 | 0.00 | 0.00 | 0.00 | ||
| 20260505084442 | 53 | 139 | 0.0 | 0.0 | 0.00 | 0.00 | 0.00 | ||
| 20260505083937 | 52 | 139 | 0.0 | 0.0 | 0.00 | 0.00 | 0.00 | ||
| 20260505083432 | 51 | 139 | 0.0 | 0.0 | 0.00 | 0.00 | 0.00 | ||
| 20260505082927 | 51 | 139 | 0.0 | 0.0 | 0.00 | 0.00 | 0.00 | ||
| 20260505082423 | 51 | 139 | 0.0 | 0.0 | 0.00 | 0.00 | 0.00 | ||
| 20260505081915 | 52 | 139 | 0.0 | 0.0 | 0.00 | 0.00 | 0.00 | ||
| 20260505081410 | 50 | 139 | 0.0 | 0.0 | 0.00 | 0.00 | 0.00 | ||
| 20260505080400 | 50 | 139 | 0.0 | 0.0 | 0.00 | 0.00 | 0.00 | ||
| 20260505075855 | 50 | 139 | 0.0 | 0.0 | 0.00 | 0.00 | 0.00 | ||
| 20260505075351 | 50 | 139 | 0.0 | 0.0 | 0.00 | 0.00 | 0.00 | ||
| 20260505074843 | 51 | 139 | 0.0 | 0.0 | 0.00 | 0.00 | 0.00 | ||
| 20260505074338 | 50 | 139 | 0.0 | 0.0 | 0.00 | 0.00 | 0.00 | ||
| 20260505073833 | 51 | 139 | 0.0 | 0.0 | 0.00 | 0.00 | 0.00 | ||
| 20260505073328 | 51 | 139 | 0.0 | 0.0 | 0.00 | 0.00 | 0.00 | ||
| 20260505072823 | 51 | 139 | 0.0 | 0.0 | 0.00 | 0.00 | 0.00 | ||
| 20260505072319 | 52 | 139 | 0.0 | 0.0 | 0.00 | 0.00 | 0.00 | ||
| 20260505071811 | 52 | 139 | 0.0 | 0.0 | 0.00 | 0.00 | 0.00 | ||
| 20260505071306 | 52 | 139 | 0.0 | 0.0 | 0.00 | 0.00 | 0.00 | ||
| 20260505070801 | 53 | 139 | 0.0 | 0.0 | 0.00 | 0.00 | 0.00 | ||
| 20260505070257 | 53 | 139 | 0.0 | 0.0 | 0.00 | 0.00 | 0.00 | ||
| 20260505065752 | 54 | 139 | 0.0 | 0.0 | 0.00 | 0.00 | 0.00 | ||
| 20260505065247 | 52 | 139 | 0.0 | 0.0 | 0.00 | 0.00 | 0.00 | ||
| 20260505064739 | 51 | 139 | 0.0 | 0.0 | 0.00 | 0.00 | 0.00 | ||
| 20260505064235 | 51 | 139 | 0.0 | 1.7 | 0.00 | 0.00 | 0.00 | ||
| 20260505063730 | 52 | 179 | 1.7 | 0.0 | 0.00 | 0.00 | 0.00 | ||
| 20260505063225 | 52 | 190 | 0.0 | 0.0 | 0.00 | 0.00 | 0.00 | ||
| 20260505062720 | 53 | 190 | 0.0 | 0.0 | 0.00 | 0.00 | 0.00 | ||
| 20260505062216 | 53 | 190 | 0.0 | 0.0 | 0.00 | 0.00 | 0.00 | ||
| 20260505061203 | 55 | 190 | 0.0 | 0.9 | 0.00 | 0.00 | 0.00 | ||
| 20260505060658 | 55 | 181 | 0.0 | 0.0 | 0.00 | 0.00 | 0.00 | ||
| 20260505060154 | 55 | 181 | 0.0 | 0.9 | 0.00 | 0.00 | 0.00 | ||
| 20260505055649 | 55 | 194 | 0.9 | 1.7 | 0.00 | 0.00 | 0.00 | ||
| 20260505055144 | 55 | 176 | 0.0 | 0.0 | 0.00 | 0.00 | 0.00 | ||
| 20260505054637 | 55 | 176 | 0.0 | 1.7 | 0.00 | 0.00 | 0.00 | ||
| 20260505054132 | 57 | 179 | 0.9 | 2.6 | 0.00 | 0.00 | 0.00 | ||
| 20260505053626 | 57 | 233 | 1.7 | 2.6 | 0.00 | 0.00 | 0.00 | ||
| 20260505053121 | 59 | 226 | 1.7 | 2.6 | 0.00 | 0.00 | 0.00 | ||
| 20260505052617 | 58 | 135 | 1.7 | 0.0 | 0.00 | 0.00 | 0.00 | ||
| 20260505052112 | 59 | 159 | 0.0 | 0.0 | 0.00 | 0.00 | 0.00 | ||
| 20260505051604 | 58 | 159 | 0.0 | 0.0 | 0.00 | 0.00 | 0.00 | ||
| 20260505051058 | 59 | 159 | 0.0 | 3.5 | 0.00 | 0.00 | 0.00 | ||
| 20260505050554 | 60 | 159 | 0.0 | 4.3 | 0.00 | 0.00 | 0.00 | ||
| 20260505041458 | 62 | 163 | 4.3 | 7.0 | 0.00 | 0.00 | 0.00 | ||
| 20260505040953 | 63 | 148 | 5.2 | 7.8 | 0.00 | 0.00 | 0.00 | ||
| 20260505040448 | 64 | 155 | 5.2 | 7.0 | 0.00 | 0.00 | 0.00 | ||
| 20260505035944 | 63 | 132 | 3.5 | 5.2 | 0.00 | 0.00 | 0.00 | ||
| 20260505035439 | 64 | 162 | 3.5 | 6.1 | 0.00 | 0.00 | 0.00 | ||
| 20260505034934 | 63 | 170 | 1.7 | 5.2 | 0.00 | 0.00 | 0.00 | ||
| 20260505034426 | 64 | 163 | 4.3 | 6.1 | 0.00 | 0.00 | 0.00 | ||
| 20260505033922 | 64 | 160 | 2.6 | 7.8 | 0.00 | 0.00 | 0.00 | ||
| 20260505033417 | 63 | 167 | 3.5 | 7.0 | 0.00 | 0.00 | 0.00 | ||
| 20260505032912 | 64 | 152 | 3.5 | 6.1 | 0.00 | 0.00 | 0.00 | ||
| 20260505032408 | 64 | 110 | 1.7 | 5.2 | 0.00 | 0.00 | 0.00 | ||
| 20260505031903 | 64 | 167 | 3.5 | 7.0 | 0.00 | 0.00 | 0.00 | ||
| 20260505030346 | 66 | 148 | 2.6 | 7.0 | 0.00 | 0.00 | 0.00 | ||
| 20260505025841 | 65 | 145 | 2.6 | 7.0 | 0.00 | 0.00 | 0.00 | ||
| 20260505025336 | 66 | 138 | 3.5 | 6.1 | 0.00 | 0.00 | 0.00 | ||
| 20260505024830 | 64 | 152 | 5.2 | 7.0 | 0.00 | 0.00 | 0.00 | ||
| 20260505024323 | 64 | 176 | 3.5 | 6.1 | 0.00 | 0.00 | 0.00 | ||
| 20260505023818 | 65 | 162 | 3.5 | 5.2 | 0.00 | 0.00 | 0.00 | ||
| 20260505023314 | 65 | 197 | 2.6 | 4.3 | 0.00 | 0.00 | 0.00 | ||
| 20260505022809 | 66 | 179 | 2.6 | 5.2 | 0.00 | 0.00 | 0.00 | ||
| 20260505022304 | 65 | 219 | 1.7 | 7.0 | 0.00 | 0.00 | 0.00 | ||
| 20260505021800 | 65 | 198 | 5.2 | 7.8 | 0.00 | 0.00 | 0.00 | ||
| 20260505021252 | 66 | 217 | 3.5 | 7.8 | 0.00 | 0.00 | 0.00 | ||
| 20260505020748 | 66 | 221 | 3.5 | 7.0 | 0.00 | 0.00 | 0.00 | ||
| 20260505020243 | 66 | 219 | 4.3 | 7.8 | 0.00 | 0.00 | 0.00 | ||
| 20260505015738 | 67 | 205 | 5.2 | 8.7 | 0.00 | 0.00 | 0.00 | ||
| 20260505015233 | 67 | 165 | 5.2 | 9.6 | 0.00 | 0.00 | 0.00 | ||
| 20260505014729 | 68 | 172 | 4.3 | 9.6 | 0.00 | 0.00 | 0.00 | ||
| 20260505014221 | 68 | 153 | 4.3 | 8.7 | 0.00 | 0.00 | 0.00 | ||
| 20260505013716 | 68 | 174 | 7.8 | 12.2 | 0.00 | 0.00 | 0.00 | ||
| 20260505013212 | 68 | 172 | 5.2 | 8.7 | 0.00 | 0.00 | 0.00 | ||
| 20260505012707 | 68 | 186 | 4.3 | 8.7 | 0.00 | 0.00 | 0.00 | ||
| 20260505012202 | 68 | 172 | 6.1 | 7.8 | 0.00 | 0.00 | 0.00 | ||
| 20260505011658 | 68 | 180 | 7.0 | 7.8 | 0.00 | 0.00 | 0.00 | ||
| 20260505011150 | 68 | 162 | 6.1 | 8.7 | 0.00 | 0.00 | 0.00 | ||
| 20260505010645 | 69 | 158 | 4.3 | 11.3 | 0.00 | 0.00 | 0.00 | ||
| 20260505010141 | 69 | 201 | 7.8 | 11.3 | 0.00 | 0.00 | 0.00 | ||
| 20260505005636 | 68 | 177 | 6.1 | 9.6 | 0.00 | 0.00 | 0.00 | ||
| 20260505005131 | 69 | 152 | 3.5 | 11.3 | 0.00 | 0.00 | 0.00 | ||
| 20260505004627 | 70 | 146 | 7.0 | 9.6 | 0.00 | 0.00 | 0.00 | ||
| 20260505004119 | 69 | 163 | 4.3 | 10.4 | 0.00 | 0.00 | 0.00 | ||
| 20260505003614 | 69 | 160 | 7.8 | 10.4 | 0.00 | 0.00 | 0.00 | ||
| 20260505003110 | 69 | 180 | 8.7 | 9.6 | 0.00 | 0.00 | 0.00 | ||
| 20260505002605 | 70 | 174 | 7.0 | 8.7 | 0.00 | 0.00 | 0.00 | ||
| 20260505002100 | 70 | 143 | 3.5 | 11.3 | 0.00 | 0.00 | 0.00 | ||
| 20260505001556 | 71 | 158 | 4.3 | 9.6 | 0.00 | 0.00 | 0.00 | ||
| 20260505001048 | 70 | 170 | 3.5 | 13.0 | 0.00 | 0.00 | 0.00 | ||
| 20260505000544 | 70 | 170 | 3.5 | 13.0 | 0.00 | 0.00 | 0.00 | ||
| 20260505000039 | 71 | 143 | 5.2 | 8.7 | 0.00 | 0.00 | 0.00 | ||
| 20260504235535 | 71 | 153 | 7.0 | 8.7 | 0.00 | 0.00 | 0.00 | ||
| 20260504235030 | 70 | 129 | 4.3 | 10.4 | 0.00 | 0.00 | 0.00 | ||
| 20260504234525 | 70 | 204 | 5.2 | 9.6 | 0.00 | 0.00 | 0.00 | ||
| 20260504234018 | 71 | 165 | 5.2 | 11.3 | 0.00 | 0.00 | 0.00 | ||
| 20260504233513 | 72 | 195 | 7.0 | 12.2 | 0.00 | 0.00 | 0.00 | ||
| 20260504233008 | 70 | 162 | 7.8 | 9.6 | 0.00 | 0.00 | 0.00 | ||
| 20260504232504 | 72 | 186 | 7.8 | 10.4 | 0.00 | 0.00 | 0.00 | ||
| 20260504231959 | 73 | 127 | 7.0 | 9.6 | 0.00 | 0.00 | 0.00 | ||
| 20260504231454 | 72 | 153 | 7.0 | 11.3 | 0.00 | 0.00 | 0.00 |